FW8872 Weather Reports


Display with metric or nautical units.
time (UTC)temp
F
wind
direction
speed
MPH
gust
MPH
rain 1hr
in
rain 24hr
in
rain mn
in
humidity
%
barometer
mb
20220706123745 76 219 7.0 14.0 0.00 0.00 0.00 60 1012.0
20220706122715 75 215 7.0 16.0 0.00 0.00 0.00 61 1012.0
20220706121745 75 217 7.0 15.0 0.00 0.00 0.00 61 1012.0
20220706120743 74 218 5.0 11.0 0.00 0.00 0.00 60 1012.1
20220706115641 74 222 6.0 13.0 0.00 0.00 0.00 59 1012.0
20220706114642 74 222 5.0 11.0 0.00 0.00 0.00 59 1012.0
20220706113638 74 221 5.0 11.0 0.00 0.00 0.00 59 1011.9
20220706112738 75 224 5.0 11.0 0.00 0.00 0.00 58 1011.7
20220706111744 75 222 4.0 10.0 0.00 0.00 0.00 58 1011.7
20220706110738 75 222 4.0 10.0 0.00 0.00 0.00 58 1011.9
20220706105713 75 230 4.0 8.0 0.00 0.00 0.00 58 1011.8
20220706104615 75 229 5.0 11.0 0.00 0.00 0.00 58 1011.7
20220706103618 75 225 5.0 10.0 0.00 0.00 0.00 58 1011.5
20220706102744 75 223 5.0 13.0 0.00 0.00 0.00 58 1011.4
20220706101711 75 225 5.0 9.0 0.00 0.00 0.00 58 1011.4
20220706100745 76 228 5.0 8.0 0.00 0.00 0.00 57 1011.4
20220706095746 76 228 4.0 8.0 0.00 0.00 0.00 57 1011.4
20220706094821 76 223 4.0 9.0 0.00 0.00 0.00 56 1011.3
20220706093642 77 223 4.0 9.0 0.00 0.00 0.00 56 1011.2
20220706092639 77 223 4.0 8.0 0.00 0.00 0.00 56 1011.0
20220706091639 77 225 4.0 8.0 0.00 0.00 0.00 56 1010.9
20220706090712 78 232 4.0 11.0 0.00 0.00 0.00 56 1011.0
20220706085641 78 236 4.0 9.0 0.00 0.00 0.00 56 1010.8
20220706084639 78 239 4.0 9.0 0.00 0.00 0.00 56 1010.9
20220706083647 78 238 4.0 8.0 0.00 0.00 0.00 55 1010.8
20220706082645 78 236 5.0 10.0 0.00 0.00 0.00 55 1010.8
20220706081614 78 234 5.0 10.0 0.00 0.00 0.00 55 1010.8
20220706080618 78 232 5.0 11.0 0.00 0.00 0.00 54 1010.9
20220706075618 78 229 5.0 9.0 0.00 0.00 0.00 54 1010.8
20220706074615 79 231 4.0 8.0 0.00 0.00 0.00 54 1010.7
20220706073618 79 235 4.0 10.0 0.00 0.00 0.00 53 1010.8
20220706072613 79 237 5.0 10.0 0.00 0.00 0.00 53 1010.9
20220706071611 80 235 4.0 10.0 0.00 0.00 0.00 52 1010.8
20220706070540 80 236 4.0 8.0 0.00 0.00 0.00 52 1010.6
20220706065543 80 236 4.0 8.0 0.00 0.00 0.00 52 1010.6
20220706064618 80 234 5.0 9.0 0.00 0.00 0.00 51 1010.6
20220706063538 80 232 5.0 11.0 0.00 0.00 0.00 51 1010.6
20220706062539 80 222 5.0 9.0 0.00 0.00 0.00 51 1010.3
20220706061540 80 220 5.0 11.0 0.00 0.00 0.00 51 1010.4
20220706060515 80 217 5.0 11.0 0.00 0.00 0.00 50 1010.4
20220706055515 81 215 4.0 9.0 0.00 0.00 0.00 49 1010.6
20220706054515 81 216 5.0 11.0 0.00 0.00 0.00 48 1010.6
20220706053713 81 220 5.0 12.0 0.00 0.00 0.00 47 1010.9
20220706052516 82 223 4.0 11.0 0.00 0.00 0.00 46 1011.0
20220706051518 82 225 4.0 8.0 0.00 0.00 0.00 46 1011.0
20220706050513 82 225 4.0 11.0 0.00 0.00 0.00 46 1011.2
20220706045516 82 223 4.0 9.0 0.00 0.00 0.00 46 1011.3
20220706044512 83 225 4.0 11.0 0.00 0.00 0.00 45 1011.4
20220706043441 83 233 4.0 8.0 0.00 0.00 0.00 45 1011.5
20220706042452 84 234 5.0 11.0 0.00 0.00 0.00 45 1011.7
20220706041516 84 233 5.0 10.0 0.00 0.00 0.00 45 1011.8
20220706040443 84 235 4.0 11.0 0.00 0.00 0.00 45 1011.7
20220706035441 85 231 4.0 10.0 0.00 0.00 0.00 45 1011.1
20220706034442 85 234 4.0 9.0 0.00 0.00 0.00 45 1011.0
20220706033439 86 232 4.0 11.0 0.00 0.00 0.00 45 1011.0
20220706032612 86 233 4.0 8.0 0.00 0.00 0.00 44 1011.0
20220706031415 86 238 4.0 9.0 0.00 0.00 0.00 44 1011.0
20220706030416 86 238 4.0 10.0 0.00 0.00 0.00 43 1011.0
20220706025414 86 244 3.0 8.0 0.00 0.00 0.00 43 1011.0
20220706024411 86 270 4.0 9.0 0.00 0.00 0.00 43 1010.9
20220706023414 86 239 4.0 8.0 0.00 0.00 0.00 43 1010.8
20220706022419 87 235 5.0 8.0 0.00 0.00 0.00 42 1010.8
20220706021345 87 233 5.0 10.0 0.00 0.00 0.00 42 1010.3
20220706020344 87 234 6.0 11.0 0.00 0.00 0.00 42 1010.1
20220706015341 88 231 5.0 11.0 0.00 0.00 0.00 41 1009.8
20220706014548 88 230 5.0 9.0 0.00 0.00 0.00 41 1009.6
20220706013338 88 238 7.0 13.0 0.00 0.00 0.00 40 1009.7
20220706012344 88 231 6.0 11.0 0.00 0.00 0.00 40 1009.7
20220706011340 89 237 7.0 13.0 0.00 0.00 0.00 41 1009.6
20220706010344 89 236 6.0 11.0 0.00 0.00 0.00 43 1009.6
20220706005316 89 243 6.0 10.0 0.00 0.00 0.00 43 1009.7
20220706004311 90 231 7.0 14.0 0.00 0.00 0.00 43 1009.6
20220706003313 91 232 8.0 12.0 0.00 0.00 0.00 42 1009.4
20220706002315 92 237 8.0 12.0 0.00 0.00 0.00 40 1009.4
20220706001618 94 237 8.0 16.0 0.00 0.00 0.00 38 1009.4
20220706000315 97 226 7.0 13.0 0.00 0.00 0.00 33 1009.1
20220705235315 98 226 6.0 12.0 0.00 0.00 0.00 31 1008.7
20220705234316 98 232 6.0 12.0 0.00 0.00 0.00 31 1008.5
20220705233318 99 222 6.0 13.0 0.00 0.00 0.00 30 1008.6
20220705232614 101 209 6.0 11.0 0.00 0.00 0.00 29 1008.6
20220705231244 100 210 5.0 12.0 0.00 0.00 0.00 31 1008.5
20220705230316 99 219 6.0 12.0 0.00 0.00 0.00 31 1008.6
20220705225243 101 230 6.0 11.0 0.00 0.00 0.00 30 1008.6
20220705224343 102 225 6.0 10.0 0.00 0.00 0.00 28 1008.6
20220705223317 105 216 7.0 16.0 0.00 0.00 0.00 28 1008.3
20220705222237 106 233 5.0 10.0 0.00 0.00 0.00 28 1008.5
20220705221239 107 216 4.0 14.0 0.00 0.00 0.00 28 1008.7
20220705220217 106 205 6.0 12.0 0.00 0.00 0.00 29 1008.9
20220705215214 106 203 7.0 16.0 0.00 0.00 0.00 29 1009.1
20220705214216 106 216 6.0 11.0 0.00 0.00 0.00 29 1009.3
20220705213247 105 230 6.0 12.0 0.00 0.00 0.00 30 1009.6
20220705212216 105 209 5.0 11.0 0.00 0.00 0.00 31 1009.8
20220705211217 105 227 6.0 19.0 0.00 0.00 0.00 30 1009.8
20220705210315 104 201 6.0 14.0 0.00 0.00 0.00 31 1010.0
20220705205216 104 224 5.0 10.0 0.00 0.00 0.00 32 1010.1
20220705204142 104 220 5.0 13.0 0.00 0.00 0.00 31 1010.2
20220705203215 104 218 5.0 13.0 0.00 0.00 0.00 32 1010.3
20220705202140 104 211 6.0 13.0 0.00 0.00 0.00 32 1010.4
20220705201145 104 215 6.0 12.0 0.00 0.00 0.00 31 1010.6
20220705200140 104 229 5.0 11.0 0.00 0.00 0.00 32 1010.6
20220705195140 104 227 5.0 9.0 0.00 0.00 0.00 32 1010.8
20220705194114 104 225 6.0 10.0 0.00 0.00 0.00 32 1010.9
20220705193113 103 211 5.0 11.0 0.00 0.00 0.00 34 1011.0
20220705192115 102 210 6.0 10.0 0.00 0.00 0.00 34 1011.0
20220705191112 102 207 5.0 11.0 0.00 0.00 0.00 35 1011.2
20220705190117 101 210 6.0 12.0 0.00 0.00 0.00 36 1011.3
20220705185045 100 231 7.0 17.0 0.00 0.00 0.00 36 1011.5
20220705184041 100 228 7.0 12.0 0.00 0.00 0.00 37 1011.8
20220705183144 100 222 5.0 10.0 0.00 0.00 0.00 36 1011.8
20220705182045 100 220 6.0 19.0 0.00 0.00 0.00 37 1012.0
20220705181815 100 223 5.0 11.0 0.00 0.00 0.00 37 1012.0
20220705180641 99 235 6.0 11.0 0.00 0.00 0.00 38 1012.1
20220705175640 98 224 6.0 11.0 0.00 0.00 0.00 39 1012.2
20220705174637 98 229 7.0 17.0 0.00 0.00 0.00 39 1012.4
20220705173644 97 230 8.0 13.0 0.00 0.00 0.00 38 1012.3
20220705172712 96 228 7.0 12.0 0.00 0.00 0.00 41 1012.4
20220705171712 96 222 6.0 13.0 0.00 0.00 0.00 41 1012.4
20220705170612 95 231 7.0 11.0 0.00 0.00 0.00 41 1012.7
20220705165619 95 207 8.0 12.0 0.00 0.00 0.00 42 1012.5
20220705164620 95 209 8.0 11.0 0.00 0.00 0.00 43 1012.4
20220705163612 94 214 8.0 12.0 0.00 0.00 0.00 44 1012.3
20220705162612 93 215 6.0 11.0 0.00 0.00 0.00 45 1012.3
20220705161617 92 212 7.0 14.0 0.00 0.00 0.00 46 1012.5
20220705160616 91 232 7.0 12.0 0.00 0.00 0.00 47 1012.7
20220705155617 91 225 8.0 17.0 0.00 0.00 0.00 47 1012.8
20220705154635 90 225 7.0 12.0 0.00 0.00 0.00 48 1012.9
20220705153545 89 216 8.0 14.0 0.00 0.00 0.00 49 1013.1
20220705152612 89 215 8.0 17.0 0.00 0.00 0.00 50 1013.1
20220705151630 88 217 8.0 14.0 0.00 0.00 0.00 51 1013.2
20220705150539 87 210 8.0 19.0 0.00 0.00 0.00 52 1013.3
20220705145615 86 226 9.0 22.0 0.00 0.00 0.00 53 1013.3
20220705145113 86 222 8.0 16.0 0.00 0.00 0.00 53 1013.3
20220705144220 86 227 8.0 15.0 0.00 0.00 0.00 54 1013.4
20220705143114 85 216 8.0 13.0 0.00 0.00 0.00 54 1013.3
20220705142116 85 211 9.0 16.0 0.00 0.00 0.00 55 1013.5
20220705141216 84 206 11.0 18.0 0.00 0.00 0.00 57 1013.5
20220705140037 83 214 10.0 18.0 0.00 0.00 0.00 58 1013.4
20220705135114 82 214 9.0 24.0 0.00 0.00 0.00 59 1013.4
20220705134612 82 211 9.0 15.0 0.00 0.00 0.00 59 1013.3
20220705133513 81 206 9.0 15.0 0.00 0.00 0.00 61 1013.6
20220705132515 80 214 8.0 17.0 0.00 0.00 0.00 62 1013.5
20220705131513 80 223 7.0 13.0 0.00 0.00 0.00 62 1013.5
20220705130439 79 217 8.0 15.0 0.00 0.00 0.00 64 1013.5
20220705125439 78 217 7.0 13.0 0.00 0.00 0.00 64 1013.5
20220705124416 78 219 7.0 13.0 0.00 0.00 0.00 65 1013.5